Weather reports worldwide

Advertisment
Gilze-Rijen, Netherlands (6350): temperature & dewpoint: 09.12.2019 00:00:00 - 15.12.2019 00:00:00 (CET)Gilze-Rijen, Netherlands (6350): temperature 5cm: 09.12.2019 00:00:00 - 15.12.2019 00:00:00 (CET)Gilze-Rijen, Netherlands (6350): wind speed & gusts: 09.12.2019 00:00:00 - 15.12.2019 00:00:00 (CET)Gilze-Rijen, Netherlands (6350): wind direction: 09.12.2019 00:00:00 - 15.12.2019 00:00:00 (CET)Gilze-Rijen, Netherlands (6350): reduced air pressure: 09.12.2019 00:00:00 - 15.12.2019 00:00:00 (CET)Gilze-Rijen, Netherlands (6350): visibility: 09.12.2019 00:00:00 - 15.12.2019 00:00:00 (CET)Gilze-Rijen, Netherlands (6350): precipitation: 09.12.2019 00:00:00 - 15.12.2019 00:00:00 (CET)
Date & Time tt [°C] td [°C] tt 5cm [°C] ff [km/h] ff [kn] fx [km/h] fx [kn] dd ppp [hPa] vv [km] rr [mm]
15.12.2019 00:00:00 5,0 3,0 4,5 16 9 - - S 995,9 10 -
14.12.2019 23:00:00 5,3 2,3 4,5 18 10 25 14 S 996,8 10 0,0
14.12.2019 22:00:00 5,4 1,5 4,3 16 9 25 14 SSW 997,7 10 0,0
14.12.2019 21:00:00 5,4 0,9 4,2 16 9 25 14 SSW 998,1 10 0,0
14.12.2019 20:00:00 5,8 0,8 4,4 15 8 29 16 SW 997,6 10 0,0
14.12.2019 19:00:00 6,6 0,0 5,4 21 11 43 23 WSW 996,5 10 0,0
14.12.2019 18:00:00 6,9 0,6 5,6 21 11 58 31 WSW 995,3 10 0,0
14.12.2019 17:00:00 7,2 2,4 6,1 34 18 61 33 W 993,6 10 0,2
14.12.2019 16:00:00 7,9 4,0 7,2 26 14 58 31 SW 991,6 10 0,0
14.12.2019 15:00:00 7,2 4,4 6,7 28 15 47 25 SSW 990,7 10 0,1
14.12.2019 14:00:00 7,3 3,2 6,6 21 11 36 19 SSW 991,4 10 0,1
14.12.2019 13:00:00 7,7 2,6 7,2 18 10 40 21 SW 991,6 10 0,0
14.12.2019 12:00:00 7,4 2,8 6,9 21 11 43 23 WSW 991,4 10 0,0
14.12.2019 11:00:00 7,0 3,2 6,4 22 12 40 21 W 990,4 10 0,0
14.12.2019 10:00:00 5,3 3,8 4,9 26 14 47 25 WSW 989,1 10 1,7
14.12.2019 09:00:00 5,5 4,5 5,1 16 9 43 23 WSW 987,6 10 0,8
14.12.2019 08:00:00 5,0 3,8 4,1 15 8 32 18 WSW 986,3 10 0,0
14.12.2019 07:00:00 5,1 4,1 4,4 13 7 25 14 WSW 984,7 10 0,0
14.12.2019 06:00:00 5,2 4,3 4,8 9 5 22 12 W 983,1 10 0,9
14.12.2019 05:00:00 5,1 4,7 4,7 8 4 14 8 - 981,7 6 1,7
14.12.2019 04:00:00 5,1 4,6 4,8 13 7 29 16 S 980,8 6 1,3
14.12.2019 03:00:00 5,5 3,9 5,1 22 12 29 16 S 981,6 9 0,1
14.12.2019 02:00:00 5,8 3,3 5,3 18 10 32 18 SSW 982,4 10 0,0
14.12.2019 01:00:00 5,6 2,9 4,9 22 12 36 19 SSW 982,8 10 0,0
14.12.2019 00:00:00 5,6 2,9 4,9 21 11 32 18 SSW 983,7 10 0,0
13.12.2019 23:00:00 6,1 3,0 5,3 18 10 25 14 SSW 983,9 10 0,0
13.12.2019 22:00:00 6,7 3,3 6,0 16 9 29 16 SW 984,4 10 0,0
13.12.2019 21:00:00 6,3 4,5 5,7 15 8 29 16 SW 984,7 10 0,1
13.12.2019 20:00:00 6,7 4,8 6,2 16 9 32 18 WSW 984,9 10 0,2
13.12.2019 19:00:00 6,7 5,0 6,2 22 12 32 18 W 984,3 10 0,5
13.12.2019 18:00:00 7,1 5,4 6,7 15 8 32 18 W 983,4 10 0,2
13.12.2019 17:00:00 7,4 5,6 6,8 16 9 32 18 W 982,3 10 0,0
13.12.2019 16:00:00 6,8 5,9 6,3 13 7 22 12 W 980,9 10 0,1
13.12.2019 15:00:00 5,6 5,4 5,3 11 6 25 14 W 979,3 5 1,0
13.12.2019 14:00:00 4,7 4,3 4,6 16 9 25 14 WNW 978,0 6 1,5
13.12.2019 13:00:00 4,7 4,3 4,7 13 7 22 12 NW 976,2 6 0,6
13.12.2019 12:00:00 4,9 4,7 4,9 9 5 14 8 N 974,6 2,5 0,1
13.12.2019 11:00:00 4,9 4,6 4,9 5 3 14 8 N 973,4 4,1 0,0
13.12.2019 10:00:00 4,5 4,4 4,4 11 6 18 10 ESE 972,3 4,5 0,1
13.12.2019 09:00:00 4,3 3,9 4,1 9 5 25 14 SE 971,7 4,5 1,0
13.12.2019 08:00:00 4,2 3,7 3,9 15 8 29 16 ESE 971,3 10 0,7
13.12.2019 07:00:00 3,9 3,4 3,7 16 9 29 16 ESE 971,6 6 1,0
13.12.2019 06:00:00 4,0 3,3 3,7 16 9 25 14 SE 972,4 10 0,1
13.12.2019 05:00:00 3,9 3,1 3,7 16 9 29 16 SE 973,6 10 0,1
13.12.2019 04:00:00 4,2 2,7 3,9 16 9 32 18 SSE 975,1 10 0,0
13.12.2019 03:00:00 4,2 2,6 4,0 22 12 40 21 SSE 976,4 10 0,0
13.12.2019 02:00:00 4,2 2,7 3,9 26 14 43 23 SSE 977,6 10 0,1
13.12.2019 01:00:00 4,3 2,8 4,0 29 16 50 27 S 979,3 10 1,2
13.12.2019 00:00:00 4,5 3,1 4,2 26 14 47 25 SSE 981,3 10 0,8
12.12.2019 23:00:00 4,7 2,8 4,2 28 15 50 27 SSE 982,7 10 0,8
12.12.2019 22:00:00 5,5 1,9 5,1 34 18 47 25 SSE 984,5 10 0,0
12.12.2019 21:00:00 5,2 1,4 4,7 28 15 43 23 SSE 986,3 10 0,0
12.12.2019 20:00:00 4,9 1,3 4,4 26 14 43 23 SSE 988,0 10 0,0
12.12.2019 19:00:00 4,6 1,3 4,3 26 14 40 21 SSE 989,6 10 0,0
12.12.2019 18:00:00 4,6 1,1 4,2 28 15 47 25 SSE 991,1 10 0,0
12.12.2019 17:00:00 4,8 0,9 4,0 28 15 43 23 S 992,7 10 0,0
12.12.2019 16:00:00 5,2 1,5 4,6 28 15 40 21 S 994,1 10 0,0
12.12.2019 15:00:00 5,6 2,0 5,2 26 14 43 23 S 995,8 10 0,0
12.12.2019 14:00:00 5,9 2,3 5,6 22 12 40 21 S 997,1 10 0,0
12.12.2019 13:00:00 5,5 2,7 5,5 24 13 36 19 S 998,7 10 0,0
12.12.2019 12:00:00 4,5 3,0 4,7 21 11 32 18 S 1000,0 10 0,0
12.12.2019 11:00:00 3,8 2,7 3,6 16 9 25 14 SSW 1001,0 10 0,0
12.12.2019 10:00:00 2,7 2,0 2,1 16 9 29 16 SSW 1001,7 7 0,0
12.12.2019 09:00:00 2,2 1,7 1,2 15 8 22 12 SSW 1002,0 8 0,0
12.12.2019 08:00:00 2,4 2,0 1,4 13 7 18 10 SSW 1002,1 10 0,0
12.12.2019 07:00:00 2,7 2,1 1,7 11 6 18 10 SSW 1002,1 10 0,0
12.12.2019 06:00:00 3,5 2,8 2,5 11 6 18 10 SSW 1002,0 10 0,0
12.12.2019 05:00:00 4,4 3,6 4,0 11 6 22 12 SSW 1002,1 10 0,3
12.12.2019 04:00:00 4,4 3,3 3,6 11 6 22 12 SW 1002,2 10 0,0
12.12.2019 03:00:00 4,4 3,4 3,5 11 6 22 12 SSW 1002,1 10 0,0
12.12.2019 02:00:00 4,9 3,8 4,1 13 7 22 12 SSW 1002,1 10 0,0
12.12.2019 01:00:00 4,6 4,0 3,6 11 6 18 10 SSW 1002,3 10 0,0
12.12.2019 00:00:00 4,8 4,0 4,1 15 8 22 12 SSW 1002,6 10 0,0
11.12.2019 23:00:00 4,8 4,1 4,0 15 8 25 14 SSW 1003,1 9 0,0
11.12.2019 22:00:00 4,5 3,9 3,7 15 8 22 12 S 1003,4 8 0,0
11.12.2019 21:00:00 5,6 4,8 5,0 16 9 25 14 SSW 1003,9 7 0,0
11.12.2019 20:00:00 5,5 4,8 5,0 16 9 25 14 S 1004,2 7 0,0
11.12.2019 19:00:00 5,0 4,4 3,9 11 6 18 10 S 1004,4 7 0,0
11.12.2019 18:00:00 4,8 4,2 4,0 11 6 18 10 S 1004,5 8 0,0
11.12.2019 17:00:00 5,1 4,4 4,3 11 6 14 8 SSW 1004,8 10 0,0
11.12.2019 16:00:00 5,9 5,0 5,3 9 5 14 8 SSW 1005,1 10 0,0
11.12.2019 15:00:00 6,4 5,1 6,0 11 6 18 10 SSW 1005,4 10 0,0
11.12.2019 14:00:00 6,8 5,6 6,8 13 7 22 12 SSW 1005,9 8 0,0
11.12.2019 13:00:00 6,7 5,6 6,7 13 7 22 12 SW 1006,7 10 0,0
11.12.2019 12:00:00 6,5 5,8 6,5 11 6 22 12 SSW 1007,5 10 0,0
11.12.2019 11:00:00 6,4 5,6 6,3 11 6 22 12 SSW 1008,0 10 0,0
11.12.2019 10:00:00 6,3 5,5 6,1 13 7 18 10 SSW 1008,4 10 0,0
11.12.2019 09:00:00 6,3 5,9 6,0 13 7 22 12 SSW 1008,6 10 0,0
11.12.2019 08:00:00 6,3 5,8 6,1 11 6 22 12 SSW 1008,7 10 0,4
11.12.2019 07:00:00 6,3 5,9 6,1 15 8 29 16 SSW 1009,1 6 0,6
11.12.2019 06:00:00 6,3 5,6 6,0 18 10 32 18 SSW 1008,9 10 0,6
11.12.2019 05:00:00 6,4 5,6 6,2 21 11 36 19 SSW 1009,2 10 0,3
11.12.2019 04:00:00 6,7 5,5 6,3 24 13 43 23 SSW 1009,6 10 1,9
11.12.2019 03:00:00 7,4 5,0 7,0 26 14 43 23 SSW 1009,7 10 0,0
11.12.2019 02:00:00 7,1 5,1 6,7 26 14 50 27 SSW 1010,0 10 0,0
11.12.2019 01:00:00 7,8 4,1 7,3 31 17 50 27 SSW 1010,3 10 0,0
11.12.2019 00:00:00 7,7 2,8 7,2 29 16 43 23 S 1010,7 10 0,0
10.12.2019 23:00:00 7,3 2,4 6,8 35 19 54 29 S 1011,2 10 0,0
10.12.2019 22:00:00 7,0 2,0 6,5 37 20 54 29 S 1012,0 10 0,0
10.12.2019 21:00:00 6,6 1,7 6,1 39 21 54 29 S 1012,9 10 0,0
10.12.2019 20:00:00 6,2 1,4 5,7 37 20 50 27 S 1013,7 10 0,0
10.12.2019 19:00:00 5,8 1,2 5,2 31 17 47 25 S 1014,9 10 0,0
10.12.2019 18:00:00 5,7 1,2 5,2 29 16 43 23 S 1016,4 10 0,0
10.12.2019 17:00:00 5,9 1,0 5,2 28 15 47 25 S 1017,3 10 0,0
10.12.2019 16:00:00 6,0 0,9 5,5 34 18 47 25 S 1018,4 10 0,0
10.12.2019 15:00:00 6,2 1,2 5,8 28 15 43 23 S 1019,8 10 0,0
10.12.2019 14:00:00 6,2 1,4 5,9 29 16 43 23 S 1020,9 10 0,0
10.12.2019 13:00:00 6,0 1,2 6,0 26 14 40 21 SSW 1022,4 10 0,0
10.12.2019 12:00:00 5,5 1,0 5,4 26 14 40 21 SSW 1023,5 10 0,0
10.12.2019 11:00:00 4,2 1,3 3,7 18 10 25 14 SSW 1024,6 10 0,0
10.12.2019 10:00:00 2,1 0,9 1,5 15 8 22 12 S 1024,9 10 0,0
10.12.2019 09:00:00 1,2 0,6 0,0 11 6 14 8 S 1025,1 9 0,0
10.12.2019 08:00:00 1,9 1,3 0,8 9 5 14 8 SSW 1024,9 10 0,0
10.12.2019 07:00:00 2,2 1,5 1,0 11 6 18 10 SW 1024,9 10 0,0
10.12.2019 06:00:00 2,3 1,4 1,2 9 5 18 10 SW 1024,6 10 0,0
10.12.2019 05:00:00 2,9 1,7 1,7 11 6 14 8 SW 1024,6 10 0,0
10.12.2019 04:00:00 3,3 2,3 2,1 9 5 18 10 W 1024,5 10 0,2
10.12.2019 03:00:00 3,6 1,4 1,9 9 5 14 8 WSW 1023,9 10 0,0
10.12.2019 02:00:00 4,1 1,7 2,9 11 6 14 8 WSW 1023,0 10 0,0
10.12.2019 01:00:00 3,3 1,4 1,0 9 5 11 6 WSW 1022,4 10 0,0
10.12.2019 00:00:00 2,9 0,7 1,7 9 5 14 8 WSW 1021,8 10 0,0
09.12.2019 23:00:00 4,6 2,0 2,9 13 7 29 16 W 1020,4 10 0,1
09.12.2019 22:00:00 5,0 2,2 1,7 13 7 22 12 W 1019,5 10 0,0
09.12.2019 21:00:00 5,2 1,7 4,1 21 11 36 19 NW 1018,1 10 0,0
09.12.2019 20:00:00 6,3 1,2 4,8 18 10 43 23 NW 1016,3 10 0,0
09.12.2019 19:00:00 6,8 2,3 6,1 24 13 36 19 NW 1014,4 10 0,0
09.12.2019 18:00:00 7,2 2,2 6,1 24 13 47 25 NNW 1012,2 10 0,0
09.12.2019 17:00:00 7,2 3,8 6,5 26 14 50 27 NNW 1009,7 10 0,2
09.12.2019 16:00:00 7,2 4,6 6,8 34 18 61 33 NNW 1006,7 10 0,3
09.12.2019 15:00:00 8,0 7,0 7,8 22 12 36 19 NNW 1002,7 10 0,5
09.12.2019 14:00:00 7,4 7,0 7,4 9 5 32 18 WSW 999,6 4,1 0,3
09.12.2019 13:00:00 7,2 6,2 6,9 15 8 50 27 W 999,4 10 1,3
09.12.2019 12:00:00 7,6 6,5 7,4 13 7 29 16 WSW 998,9 10 0,3
09.12.2019 11:00:00 7,2 5,9 7,0 13 7 29 16 WSW 998,3 10 0,3
09.12.2019 10:00:00 7,1 6,0 6,7 15 8 29 16 W 996,6 10 0,3
09.12.2019 09:00:00 7,1 6,3 6,7 22 12 36 19 W 995,1 10 0,5
09.12.2019 08:00:00 7,1 6,2 6,5 15 8 29 16 WSW 993,2 10 0,6
09.12.2019 07:00:00 6,5 5,5 6,1 16 9 36 19 SSW 992,1 6 0,3
09.12.2019 06:00:00 6,0 4,8 5,6 18 10 54 29 SSW 992,4 7 3,1
09.12.2019 05:00:00 6,6 4,4 6,2 28 15 47 25 SSW 993,7 10 0,4
09.12.2019 04:00:00 7,2 3,9 6,4 26 14 43 23 SSW 994,3 10 0,0
09.12.2019 03:00:00 7,4 4,0 6,7 24 13 43 23 SSW 995,5 10 0,0
09.12.2019 02:00:00 6,9 4,5 6,2 21 11 36 19 SSW 996,3 10 0,1
09.12.2019 01:00:00 6,9 4,3 6,1 26 14 40 21 SSW 996,7 10 0,0
09.12.2019 00:00:00 7,3 3,7 6,5 22 12 36 19 SSW 997,5 10 0,0

tt = temperature
td = dewpoint
tt 5cm = temperature 5cm
ff = wind speed
fx = gusts
dd = wind direction
ppp = reduced air pressure
vv = visibility
rr = precipitation

Next stations